Weather History for Mandan, ND

Change the Weather History Date:

Thursday, September 12, 2013

  Actual Average (KBIS) Record (KBIS)
Temperature  
Mean Temperature 60 °F 60 °F  
Max Temperature 73 °F 74 °F 95 °F (1969)
Min Temperature 46 °F 47 °F 28 °F (1964)
Degree Days  
Heating Degree Days 6 6  
Month to date heating degree days 55  
Since 1 July heating degree days 110  
Cooling Degree Days 0 1  
Month to date cooling degree days 27  
Year to date cooling degree days 508  
Growing Degree Days 10 (Base 50)    
Moisture  
Dew Point 47 °F    
Average Humidity 66    
Maximum Humidity 100    
Minimum Humidity 31    
Precipitation  
Precipitation 0.00 in 0.06 in 1.61 in (1876)
Month to date precipitation 0.71  
Year to date precipitation 14.52  
Snow  
Snow 0.00 in 0.00 in 2.10 in (1903)
Month to date snowfall 0.0  
Since 1 July snowfall 0.0  
Since 1 September snowfall 0.0  
Snow Depth -    
Sea Level Pressure  
Sea Level Pressure 30.30 in    
Wind  
Wind Speed 5 mph (North)    
Max Wind Speed 10 mph    
Max Gust Speed -    
Visibility 10 miles    
Events      
T = Trace of Precipitation, MM = Missing Value Source: NWS Daily Summary

Daily Weather History Graph

Daily Weather History Graph

Search for Another Location

Airport:

Trip Planner

Search our weather history database for the weather conditions in past years. The results will help you decide how hot, cold, wet, or windy it might be!

Date:

Astronomy

Sep. 12, 2013 Rise Set
Actual Time 7:17 AM CDT 8:00 PM CDT
Civil Twilight 6:47 AM CDT 8:31 PM CDT
Nautical Twilight 6:10 AM CDT 9:07 PM CDT
Astronomical Twilight 5:32 AM CDT 9:45 PM CDT
Moon 3:11 PM CDT (9/12) No Moon Set
Length of Visible Light 13h 44m
Length of Day
12h 42m
Waxing Crescent, 50% of the Moon is Illuminated
Sep 12
Waxing Crescent
Sep 12
First Quarter
Sep 19
Full
Sep 26
Last Quarter
Oct 4
New

Hourly Weather History & Observations

Time (CDT) Temp. Windchill Dew Point Humidity Pressure Visibility Wind Dir Wind Speed Gust Speed Precip Events Conditions
12:15 AM 53.6 °F - 51.8 °F 94% 30.26 in 10.0 mi Calm Calm - N/A   Clear
12:55 AM 50.0 °F - 50.0 °F 100% 30.27 in 10.0 mi West 4.6 mph - N/A   Clear
1:15 AM 50.0 °F - 50.0 °F 100% 30.27 in 10.0 mi West 4.6 mph - N/A   Clear
1:35 AM 50.0 °F - 50.0 °F 100% 30.27 in 10.0 mi West 4.6 mph - N/A   Clear
1:55 AM 51.8 °F - 48.2 °F 88% 30.28 in 10.0 mi NNW 4.6 mph - N/A   Clear
2:15 AM 50.0 °F - 48.2 °F 94% 30.28 in 10.0 mi WNW 4.6 mph - N/A   Partly Cloudy
2:35 AM 50.0 °F - 48.2 °F 94% 30.28 in 10.0 mi NNW 4.6 mph - N/A   Partly Cloudy
2:55 AM 51.8 °F - 50.0 °F 94% 30.28 in 10.0 mi NW 5.8 mph - N/A   Partly Cloudy
3:15 AM 50.0 °F - 50.0 °F 100% 30.29 in 10.0 mi NW 6.9 mph - N/A   Partly Cloudy
3:35 AM 53.6 °F - 50.0 °F 88% 30.29 in 10.0 mi NNW 9.2 mph - N/A   Partly Cloudy
3:55 AM 53.6 °F - 48.2 °F 82% 30.29 in 10.0 mi NNW 8.1 mph - N/A   Partly Cloudy
4:15 AM 50.0 °F - 48.2 °F 94% 30.30 in 10.0 mi NNW 8.1 mph - N/A   Clear
4:35 AM 50.0 °F - 48.2 °F 94% 30.30 in 10.0 mi NNW 9.2 mph - N/A   Clear
4:55 AM 50.0 °F - 48.2 °F 94% 30.30 in 10.0 mi North 10.4 mph - N/A   Clear
5:15 AM 50.0 °F - 48.2 °F 94% 30.31 in 10.0 mi North 8.1 mph - N/A   Clear
5:35 AM 50.0 °F - 48.2 °F 94% 30.31 in 10.0 mi North 8.1 mph - N/A   Clear
5:55 AM 50.0 °F - 48.2 °F 94% 30.32 in 10.0 mi North 8.1 mph - N/A   Clear
6:15 AM 50.0 °F - 48.2 °F 94% 30.32 in 10.0 mi North 9.2 mph - N/A   Clear
6:35 AM 50.0 °F - 48.2 °F 94% 30.32 in 10.0 mi NNW 8.1 mph - N/A   Clear
6:55 AM 50.0 °F - 46.4 °F 87% 30.33 in 10.0 mi NW 4.6 mph - N/A   Clear
7:15 AM 46.4 °F 45.2 °F 46.4 °F 100% 30.33 in 10.0 mi WNW 3.5 mph - N/A   Clear
7:35 AM 46.4 °F 43.5 °F 46.4 °F 100% 30.33 in 10.0 mi NW 5.8 mph - N/A   Clear
7:55 AM 48.2 °F - 48.2 °F 100% 30.34 in 10.0 mi NNW 4.6 mph - N/A   Clear
8:15 AM 50.0 °F - 46.4 °F 87% 30.35 in 10.0 mi West 3.5 mph - N/A   Clear
8:35 AM 50.0 °F - 50.0 °F 100% 30.35 in 10.0 mi West 3.5 mph - N/A   Clear
8:55 AM 53.6 °F - 50.0 °F 88% 30.36 in 7.0 mi West 3.5 mph - N/A   Clear
9:15 AM 55.4 °F - 51.8 °F 88% 30.36 in 7.0 mi WNW 3.5 mph - N/A   Clear
9:35 AM 59.0 °F - 50.0 °F 72% 30.36 in 7.0 mi North 3.5 mph - N/A   Clear
9:55 AM 59.0 °F - 50.0 °F 72% 30.36 in 10.0 mi NNW 4.6 mph - N/A   Clear
10:15 AM 62.6 °F - 50.0 °F 63% 30.37 in 10.0 mi NNE 4.6 mph - N/A   Clear
10:35 AM 62.6 °F - 48.2 °F 59% 30.37 in 4.0 mi NNE 6.9 mph - N/A   Haze
10:55 AM 64.4 °F - 48.2 °F 56% 30.38 in 10.0 mi North 6.9 mph - N/A   Clear
11:15 AM 64.4 °F - 48.2 °F 56% 30.38 in 10.0 mi North 10.4 mph - N/A   Clear
11:35 AM 66.2 °F - 48.2 °F 52% 30.38 in 10.0 mi NNE 9.2 mph - N/A   Clear
11:55 AM 66.2 °F - 48.2 °F 52% 30.37 in 10.0 mi North 5.8 mph - N/A   Clear
12:15 PM 68.0 °F - 48.2 °F 49% 30.37 in 10.0 mi NNW 9.2 mph - N/A   Clear
12:35 PM 68.0 °F - 46.4 °F 46% 30.36 in 10.0 mi North 5.8 mph - N/A   Clear
12:55 PM 68.0 °F - 48.2 °F 49% 30.36 in 10.0 mi North 9.2 mph - N/A   Clear
1:15 PM 68.0 °F - 46.4 °F 46% 30.35 in 10.0 mi North 4.6 mph - N/A   Clear
1:35 PM 69.8 °F - 46.4 °F 43% 30.35 in 10.0 mi North 8.1 mph - N/A   Clear
1:55 PM 69.8 °F - 44.6 °F 40% 30.34 in 9.0 mi North 5.8 mph - N/A   Clear
2:15 PM 69.8 °F - 44.6 °F 40% 30.34 in 10.0 mi NNW 4.6 mph - N/A   Clear
2:35 PM 71.6 °F - 44.6 °F 38% 30.33 in 10.0 mi North 9.2 mph - N/A   Clear
2:55 PM 71.6 °F - 41.0 °F 33% 30.32 in 10.0 mi North 6.9 mph - N/A   Clear
3:15 PM 71.6 °F - 41.0 °F 33% 30.31 in 9.0 mi North 4.6 mph - N/A   Clear
3:35 PM 73.4 °F - 41.0 °F 31% 30.31 in 10.0 mi NNW 5.8 mph - N/A   Clear
3:55 PM 71.6 °F - 41.0 °F 33% 30.30 in 9.0 mi NNE 4.6 mph - N/A   Clear
4:15 PM 71.6 °F - 41.0 °F 33% 30.30 in 10.0 mi ESE 3.5 mph - N/A   Clear
4:35 PM 73.4 °F - 41.0 °F 31% 30.29 in 10.0 mi NNW 5.8 mph - N/A   Clear
4:55 PM 71.6 °F - 39.2 °F 31% 30.28 in 10.0 mi NNE 4.6 mph - N/A   Clear
5:15 PM 71.6 °F - 39.2 °F 31% 30.28 in 10.0 mi Calm Calm - N/A   Clear
5:35 PM 73.4 °F - 44.6 °F 36% 30.27 in 10.0 mi Calm Calm - N/A   Clear
5:55 PM 71.6 °F - 41.0 °F 33% 30.27 in 10.0 mi Calm Calm - N/A   Clear
6:15 PM 71.6 °F - 46.4 °F 41% 30.26 in 10.0 mi NE 4.6 mph - N/A   Clear
6:35 PM 71.6 °F - 44.6 °F 38% 30.26 in 10.0 mi ENE 4.6 mph - N/A   Clear
6:55 PM 71.6 °F - 44.6 °F 38% 30.26 in 10.0 mi Calm Calm - N/A   Clear
7:15 PM 69.8 °F - 46.4 °F 43% 30.26 in 10.0 mi ESE 4.6 mph - N/A   Clear
7:35 PM 68.0 °F - 46.4 °F 46% 30.26 in 10.0 mi SSE 3.5 mph - N/A   Clear
7:55 PM 66.2 °F - 46.4 °F 49% 30.26 in 10.0 mi SE 3.5 mph - N/A   Clear
8:15 PM 66.2 °F - 46.4 °F 49% 30.26 in 10.0 mi Calm Calm - N/A   Clear
8:35 PM 66.2 °F - 46.4 °F 49% 30.26 in 10.0 mi SSE 4.6 mph - N/A   Clear
8:55 PM 64.4 °F - 46.4 °F 52% 30.26 in 10.0 mi SSE 4.6 mph - N/A   Clear
9:15 PM 64.4 °F - 46.4 °F 52% 30.26 in 10.0 mi SE 4.6 mph - N/A   Clear
9:35 PM 62.6 °F - 46.4 °F 55% 30.26 in 10.0 mi SE 4.6 mph - N/A   Clear
9:55 PM 60.8 °F - 48.2 °F 63% 30.26 in 10.0 mi ESE 4.6 mph - N/A   Clear
10:15 PM 59.0 °F - 48.2 °F 67% 30.26 in 10.0 mi SE 5.8 mph - N/A   Clear
10:35 PM 59.0 °F - 50.0 °F 72% 30.25 in 10.0 mi SE 6.9 mph - N/A   Clear
10:55 PM 57.2 °F - 48.2 °F 72% 30.25 in 10.0 mi SE 6.9 mph - N/A   Clear
11:15 PM 57.2 °F - 50.0 °F 77% 30.25 in 10.0 mi SE 5.8 mph - N/A   Clear
11:35 PM 57.2 °F - 50.0 °F 77% 30.24 in 10.0 mi SE 5.8 mph - N/A   Clear
11:55 PM 55.4 °F - 50.0 °F 82% 30.24 in 10.0 mi SE 5.8 mph - N/A   Clear